When you browse on this site, cookies collect data to enhance your experience and personalize the content and advertising you see.
Visit our Privacy Policy to learn more. By continuing to use the site, you agree to this use of cookies and data.
  • In Romania
  • List of Countries
  • For 7 days
  • Water Temperature
  • Satellite Maps
  • Weather Map
  • Weather Widgets
  • user-avatar
    Login

    Hourly Weather Seoni Malwa

    Today, 16 July, Tuesday

    Time Temperature Precipitation Wind Pressure Humidity
    00:00 +29°C° 0 mm 6 mps 725 mmHg 71%
    01:00 +29°C° 0 mm 5 mps 725 mmHg 73%
    02:00 +28°C° 0 mm 5 mps 725 mmHg 75%
    03:00 +28°C° 0 mm 4 mps 725 mmHg 76%
    04:00 +28°C° 0 mm 4 mps 725 mmHg 78%
    05:00 +27°C° 0 mm 3 mps 725 mmHg 83%
    06:00 +29°C° 0 mm 4 mps 725 mmHg 78%
    07:00 +30°C° 0 mm 5 mps 726 mmHg 74%
    08:00 +32°C° 0 mm 6 mps 726 mmHg 70%
    09:00 +33°C° 0 mm 6 mps 726 mmHg 65%
    10:00 +34°C° 0 mm 6 mps 727 mmHg 61%
    11:00 +34°C° 0 mm 6 mps 727 mmHg 56%
    12:00 +34°C° 0 mm 5 mps 727 mmHg 56%
    13:00 +35°C° 0 mm 5 mps 726 mmHg 55%
    14:00 +35°C° 0 mm 5 mps 725 mmHg 54%
    15:00 +35°C° 0 mm 5 mps 725 mmHg 54%
    16:00 +35°C° 0 mm 5 mps 725 mmHg 53%
    17:00 +35°C° 0 mm 4 mps 725 mmHg 53%
    18:00 +34°C° 0 mm 4 mps 725 mmHg 56%
    19:00 +33°C° 0 mm 3 mps 726 mmHg 59%
    20:00 +31°C° 0 mm 3 mps 726 mmHg 61%
    21:00 +31°C° 0 mm 3 mps 726 mmHg 63%
    22:00 +30°C° 0 mm 3 mps 726 mmHg 64%
    23:00 +30°C° 0 mm 3 mps 727 mmHg 66%

    Tomorrow, 17 July, Wednesday

    Time Temperature Precipitation Wind Pressure Humidity
    00:00 +29°C° 0 mm 4 mps 726 mmHg 69%
    01:00 +29°C° 0 mm 4 mps 726 mmHg 72%
    02:00 +28°C° 0 mm 5 mps 726 mmHg 75%
    03:00 +28°C° 0 mm 4 mps 726 mmHg 77%
    04:00 +27°C° 0 mm 3 mps 726 mmHg 79%
    05:00 +27°C° 0 mm 3 mps 726 mmHg 81%
    06:00 +28°C° 0 mm 3 mps 726 mmHg 76%
    07:00 +29°C° 0 mm 4 mps 727 mmHg 71%
    08:00 +30°C° 0 mm 4 mps 727 mmHg 67%
    09:00 +33°C° 0 mm 4 mps 727 mmHg 62%
    10:00 +34°C° 0 mm 4 mps 727 mmHg 57%
    11:00 +35°C° 0 mm 4 mps 727 mmHg 51%
    12:00 +36°C° 0 mm 4 mps 726 mmHg 48%
    13:00 +37°C° 0 mm 4 mps 726 mmHg 44%
    14:00 +38°C° 0 mm 4 mps 725 mmHg 40%
    15:00 +37°C° 0 mm 4 mps 725 mmHg 42%
    16:00 +37°C° 0 mm 5 mps 725 mmHg 44%
    17:00 +37°C° 0 mm 5 mps 724 mmHg 45%
    18:00 +35°C° 0 mm 5 mps 725 mmHg 49%
    19:00 +34°C° 0 mm 4 mps 725 mmHg 53%
    20:00 +33°C° 0 mm 4 mps 725 mmHg 57%
    21:00 +32°C° 0 mm 4 mps 725 mmHg 58%
    22:00 +32°C° 0 mm 4 mps 725 mmHg 59%
    23:00 +30°C° 0 mm 4 mps 725 mmHg 61%

    Day after tomorrow, 18 July, Thursday

    Time Temperature Precipitation Wind Pressure Humidity
    00:00 +30°C° 0 mm 4 mps 725 mmHg 63%
    01:00 +29°C° 0 mm 4 mps 725 mmHg 65%
    02:00 +29°C° 0 mm 3 mps 725 mmHg 68%
    03:00 +29°C° 0 mm 3 mps 725 mmHg 70%
    04:00 +28°C° 0 mm 3 mps 725 mmHg 73%
    05:00 +28°C° 0 mm 2 mps 725 mmHg 75%
    06:00 +29°C° 0 mm 3 mps 725 mmHg 72%
    07:00 +29°C° 0 mm 4 mps 726 mmHg 69%
    08:00 +30°C° 0 mm 4 mps 726 mmHg 66%
    09:00 +33°C° 0 mm 4 mps 726 mmHg 62%
    10:00 +34°C° 0 mm 4 mps 726 mmHg 57%
    11:00 +35°C° 0 mm 4 mps 726 mmHg 52%
    12:00 +36°C° 0 mm 4 mps 726 mmHg 49%
    13:00 +37°C° 0 mm 4 mps 725 mmHg 47%
    14:00 +38°C° 0 mm 4 mps 724 mmHg 44%
    15:00 +37°C° 0 mm 3 mps 724 mmHg 44%
    16:00 +37°C° 0 mm 3 mps 724 mmHg 44%
    17:00 +37°C° 0 mm 3 mps 723 mmHg 43%
    18:00 +36°C° 0 mm 3 mps 724 mmHg 46%
    19:00 +35°C° 0 mm 2 mps 724 mmHg 48%
    20:00 +32°C° 0 mm 2 mps 724 mmHg 50%
    21:00 +32°C° 0 mm 2 mps 724 mmHg 51%
    22:00 +32°C° 0 mm 2 mps 724 mmHg 52%
    23:00 +31°C° 0 mm 2 mps 724 mmHg 53%

    19 July, Friday

    Time Temperature Precipitation Wind Pressure Humidity
    00:00 +31°C° 0 mm 3 mps 724 mmHg 56%
    01:00 +30°C° 0 mm 3 mps 724 mmHg 59%
    02:00 +30°C° 0 mm 3 mps 724 mmHg 62%
    03:00 +29°C° 0 mm 3 mps 724 mmHg 64%
    04:00 +29°C° 0 mm 3 mps 724 mmHg 66%
    05:00 +28°C° 0 mm 2 mps 724 mmHg 69%
    06:00 +30°C° 0 mm 3 mps 725 mmHg 65%
    07:00 +31°C° 0 mm 3 mps 725 mmHg 61%
    08:00 +33°C° 0 mm 3 mps 726 mmHg 57%
    09:00 +34°C° 0 mm 3 mps 726 mmHg 52%
    10:00 +36°C° 0 mm 3 mps 726 mmHg 48%
    11:00 +37°C° 0 mm 3 mps 726 mmHg 43%
    12:00 +38°C° 0 mm 2 mps 725 mmHg 41%
    13:00 +39°C° 0 mm 2 mps 724 mmHg 39%
    14:00 +39°C° 0 mm 2 mps 724 mmHg 36%
    15:00 +39°C° 0 mm 1 mps 724 mmHg 37%
    16:00 +39°C° 0 mm 1 mps 723 mmHg 38%
    17:00 +39°C° 0 mm 1 mps 723 mmHg 39%
    18:00 +36°C° 0 mm 1 mps 723 mmHg 41%
    19:00 +35°C° 0 mm 1 mps 723 mmHg 44%
    20:00 +34°C° 0 mm 1 mps 724 mmHg 46%
    21:00 +34°C° 0 mm 1 mps 724 mmHg 48%
    22:00 +33°C° 0 mm 1 mps 724 mmHg 50%
    23:00 +33°C° 0 mm 1 mps 724 mmHg 51%

    20 July, Saturday

    Time Temperature Precipitation Wind Pressure Humidity
    00:00 +32°C° 0 mm 1 mps 724 mmHg 53%
    01:00 +32°C° 0 mm 1 mps 724 mmHg 54%
    02:00 +31°C° 0 mm 2 mps 723 mmHg 55%
    03:00 +31°C° 0 mm 2 mps 724 mmHg 56%
    04:00 +31°C° 0 mm 2 mps 724 mmHg 57%
    05:00 +30°C° 0 mm 2 mps 724 mmHg 58%
    06:00 +32°C° 0 mm 2 mps 725 mmHg 55%
    07:00 +34°C° 0 mm 3 mps 725 mmHg 52%
    08:00 +35°C° 0 mm 3 mps 725 mmHg 50%
    09:00 +36°C° 0 mm 3 mps 725 mmHg 46%
    10:00 +38°C° 0 mm 3 mps 725 mmHg 42%
    11:00 +39°C° 0 mm 3 mps 725 mmHg 38%
    12:00 +40°C° 0 mm 3 mps 725 mmHg 36%
    13:00 +40°C° 0 mm 2 mps 724 mmHg 35%
    14:00 +41°C° 0 mm 2 mps 723 mmHg 34%
    15:00 +40°C° 0 mm 2 mps 723 mmHg 36%
    16:00 +39°C° 0 mm 1 mps 723 mmHg 39%
    17:00 +39°C° 0 mm 1 mps 722 mmHg 41%
    18:00 +37°C° 0.1 mm 1 mps 723 mmHg 43%
    19:00 +36°C° 0.1 mm 1 mps 723 mmHg 45%
    20:00 +35°C° 0.1 mm 1 mps 723 mmHg 47%
    21:00 +34°C° 0.1 mm 1 mps 723 mmHg 48%
    22:00 +34°C° 0.1 mm 1 mps 723 mmHg 50%
    23:00 +33°C° 0.1 mm 1 mps 724 mmHg 52%

    21 July, Sunday

    Time Temperature Precipitation Wind Pressure Humidity
    00:00 +33°C° 0.3 mm 1 mps 723 mmHg 54%
    01:00 +32°C° 0.3 mm 1 mps 723 mmHg 56%
    02:00 +32°C° 0.3 mm 1 mps 723 mmHg 58%
    03:00 +31°C° 0.6 mm 1 mps 723 mmHg 61%
    04:00 +31°C° 0.6 mm 1 mps 723 mmHg 64%
    05:00 +30°C° 0.6 mm 1 mps 723 mmHg 68%
    06:00 +31°C° 0.1 mm 2 mps 723 mmHg 65%
    07:00 +31°C° 0.1 mm 3 mps 724 mmHg 62%
    08:00 +33°C° 0.1 mm 4 mps 724 mmHg 60%
    09:00 +35°C° 0 mm 4 mps 724 mmHg 55%
    10:00 +36°C° 0 mm 4 mps 724 mmHg 50%
    11:00 +38°C° 0 mm 4 mps 724 mmHg 45%
    12:00 +40°C° 0 mm 4 mps 724 mmHg 43%
    13:00 +40°C° 0 mm 3 mps 723 mmHg 40%
    14:00 +40°C° 0 mm 3 mps 722 mmHg 38%
    15:00 +40°C° 0 mm 2 mps 722 mmHg 38%
    16:00 +40°C° 0 mm 2 mps 722 mmHg 38%
    17:00 +40°C° 0 mm 2 mps 722 mmHg 38%
    18:00 +39°C° 0.2 mm 2 mps 722 mmHg 43%
    19:00 +36°C° 0.2 mm 1 mps 722 mmHg 47%
    20:00 +34°C° 0.2 mm 1 mps 722 mmHg 52%
    21:00 +34°C° 0.5 mm 1 mps 722 mmHg 55%
    22:00 +34°C° 0.5 mm 2 mps 723 mmHg 58%
    23:00 +32°C° 0.5 mm 2 mps 723 mmHg 61%
    Show more